Location: Arbon
(43.0005°N, 0.7472°E)
Time: 22:11:42
(UTC+00:00)

Explorer 7 - Pass Details

Date: 30 November 2020
Orbit: 484 x 678 km, 50.3° (Epoch: 25 January)

Event Time Altitude Azimuth Distance (km) Brightness Sun altitude
Rises 08:01:10 0° 293° (WNW) 2,698 9.7 7.2°
Reaches altitude 10° 08:03:43 10° 280° (W) 1,768 8.9 7.6°
Maximum altitude 08:07:01 25° 224° (SW) 1,057 8.3 8.0°
Drops below altitude 10° 08:10:11 10° 168° (SSE) 1,691 10.3 8.5°
Sets 08:12:34 0° 155° (SSE) 2,551 11.6 8.8°
